This demonstration page uses our WeatherBlox Daily Observations layout. Learn more.

Left ArrowRight Arrow

Hourly Observations for May 26, 2020

Temp ( °F °C ) Dew Point ( °F °C ) Humidity (%) Winds ( mph kmh ) Pressure ( in mb ) Visibility ( mi km ) Precip ( " mm )
12:53 am 00:53 Clear 69 20.6 68 20 96 96 N N/A 30.04 1017 10 16.0934 N/A
1:53 am 01:53 Clear 68 20 68 20 100 100 N N/A 30.04 1017 10 16.0934 N/A
2:53 am 02:53 Clear 67 19.4 67 19.4 100 100 N N/A 30.03 1017 8 12.87472 N/A
3:53 am 03:53 Clear 65 18.3 65 18.3 100 100 N N/A 30.04 1017 9 14.48406 N/A
4:53 am 04:53 Clear 66 18.9 65 18.3 96 96 N N/A 30.04 1017 10 16.0934 N/A
5:32 am 05:32 Clear with Mist and Fog 63 17.2 63 17.2 100 100 N N/A 30.05 1018 2.5 4.02335 N/A
5:40 am 05:40 Clear 65 18.3 64 17.8 97 97 N N/A 30.05 1018 8 12.87472 N/A
5:53 am 05:53 Clear 65 18.3 65 18.3 100 100 N N/A 30.04 1017 7 11.26538 N/A
6:53 am 06:53 Sunny 66 18.9 66 18.9 100 100 N N/A 30.07 1018 10 16.0934 N/A
7:53 am 07:53 Sunny 69 20.6 67 19.4 93 93 N N/A 30.08 1019 10 16.0934 N/A
8:53 am 08:53 Sunny 72 22.2 68 20 87 87 N N/A 30.09 1019 10 16.0934 N/A
9:53 am 09:53 Sunny 75 23.9 68 20 79 79 E 3 6 30.09 1019 10 16.0934 N/A
10:53 am 10:53 Sunny 78 25.6 68 20 71 71 VRB 5 7 30.09 1019 10 16.0934 N/A
11:53 am 11:53 Sunny 81 27.2 65 18.3 58 58 N N/A 30.08 1019 10 16.0934 N/A
12:53 pm 12:53 Sunny 84 28.9 65 18.3 53 53 N N/A 30.06 1018 10 16.0934 N/A
1:53 pm 13:53 Partly Cloudy 84 28.9 65 18.3 53 53 N N/A 30.04 1017 10 16.0934 N/A
2:53 pm 14:53 Mostly Cloudy 86 30 67 19.4 53 53 N N/A 30.01 1016 10 16.0934 N/A
3:53 pm 15:53 Mostly Sunny 87 30.6 67 19.4 51 51 N N/A 29.99 1016 10 16.0934 N/A
4:53 pm 16:53 Sunny 86 30 67 19.4 53 53 N N/A 29.98 1015 10 16.0934 N/A
5:53 pm 17:53 Mostly Cloudy 85 29.4 67 19.4 55 55 ESE 5 7 29.97 1015 10 16.0934 N/A
6:53 pm 18:53 Sunny 85 29.4 64 17.8 50 50 VRB 6 9 29.96 1015 10 16.0934 N/A
7:53 pm 19:53 Sunny 84 28.9 66 18.9 55 55 VRB 3 6 29.96 1015 10 16.0934 N/A
8:53 pm 20:53 Mostly Cloudy 81 27.2 66 18.9 61 61 S 3 6 29.98 1015 10 16.0934 N/A
9:53 pm 21:53 Clear 80 26.7 67 19.4 64 64 N N/A 29.98 1015 10 16.0934 N/A
10:53 pm 22:53 Clear 71 21.7 67 19.4 87 87 N N/A 30 1016 10 16.0934 N/A
11:53 pm 23:53 Clear 70 21.1 68 20 93 93 N N/A 30 1016 10 16.0934 N/A

Powered by AerisWeather